Погода в Мяконьках

Россия / Челябинская область     54°39′28″N   62°51′58″E
темп.,
°C
ветер,
м/с
пор.,
м/с
влажн.,
%
обл.,
%
осадки,
мм/ч
давл.,
гПа
погр.,
м
18 апреля, вс
вс1823:00+8юв227132 0.0 102014
02:00+7з2276100 0.0 101816
05:00+5ссз46796 0.0 1018108
08:00+6ссз46625 0.0 1017228
11:00+10ссз79475 0.0 10161281
14:00+8ссв11106197 0.0 10181034
17:00+6ссв10114197 0.0 10221440
20:00+3св7104311 0.0 10251364
19 апреля, пн
пн1923:00−1св610430 0.0 1028903
02:00−2всв69440 0.0 1030983
05:00−4св58470 0.0 1033922
08:00−3св68390 0.0 1034935
11:00−1св67320 0.0 10341412
14:00+1св67294 0.0 10331813
17:00+2св67305 0.0 10331912
20:000св47384 0.0 1034228
20 апреля, вт
вт2023:00−2всв25430 0.0 1035155
02:00−2в11430 0.0 103513
05:00−3зсз11430 0.0 103511
08:000сз34350 0.0 1035457
11:00+3сз343167 0.0 10341358
14:00+6зсз45285 0.0 10321529
17:00+7зсз57285 0.0 10301652
20:00+5з34420 0.0 102945
21 апреля, ср
ср2123:00+3зсз48540 0.0 1029144
02:00+2сз49670 0.0 1030158
05:000сз48740 0.0 1030135
08:00+4ссз47631 0.0 1031288
11:00+8с45515 0.0 10321011
14:00+11с454277 0.0 10321717
17:00+12ссв454080 0.0 10321846
20:00+9всв34525 0.0 103348
22 апреля, чт
чт2223:00+6вюв34535 0.0 103567
02:00+4ююв35575 0.0 103668
05:00+3ююв35625 0.0 103767
08:00+6ю35525 0.0 1038229
11:00+11ююв44395 0.0 1038922
14:00+13ю44355 0.0 10371643
17:00+14ю44335 0.0 10361786
20:00+11ююв47445 0.0 1037142